Shawnee, OK

11:09 PM CDT on October 19, 2017 (GMT -0500)
Shawnee Municipal

Weather History for KSNL - June, 2014

Change the Weather History Date:

Monday, June 9, 2014

  Actual Average (KTIK) Record (KTIK)
Temperature  
Mean Temperature 72 °F -  
Max Temperature 80 °F 80 °F 94 °F (2011)
Min Temperature 64 °F 63 °F 60 °F (2003)
Cooling Degree Days 7    
Growing Degree Days 22 (Base 50)    
Moisture  
Dew Point 65 °F    
Average Humidity 79    
Maximum Humidity 100    
Minimum Humidity 48    
Precipitation  
Precipitation 0.15 in - - ()
Sea Level Pressure  
Sea Level Pressure 29.76 in    
Wind  
Wind Speed 5 mph (WSW)    
Max Wind Speed 14 mph    
Max Gust Speed 20 mph    
Visibility 9 miles    
Events Rain , Thunderstorm    
Averages and records for this station are not official NWS values.
T = Trace of Precipitation, MM = Missing Value Source: NWS Daily Summary

Daily Weather History Graph

Daily Weather History Graph

Search for Another Location

Airport or City:

Trip Planner

Search our weather history database for the weather conditions in past years. The results will help you decide how hot, cold, wet, or windy it might be!

Date:

Astronomy

Jun. 09, 2014 Rise Set
Actual Time 6:12 AM CDT 8:41 PM CDT
Civil Twilight 5:42 AM CDT 9:11 PM CDT
Nautical Twilight 5:05 AM CDT 9:48 PM CDT
Astronomical Twilight 4:25 AM CDT 10:28 PM CDT
Moon 5:10 PM CDT (6/9) 3:32 AM CDT (6/9)
Length of Visible Light 15h 28m
Length of Day
14h 29m
Waxing Gibbous, 85% of the Moon is Illuminated
Jun 9
Waxing Gibbous
Jun 12
Full
Jun 19
Last Quarter
Jun 27
New
Jul 5
First Quarter

Hourly Weather History & Observations

Time (CDT) Temp. Heat Index Dew Point Humidity Pressure Visibility Wind Dir Wind Speed Gust Speed Precip Events Conditions
12:15 AM 71.6 °F - 71.6 °F 100% 29.90 in 10.0 mi ENE 3.5 mph - N/A   Overcast
12:35 AM 68.0 °F - 68.0 °F 100% 29.90 in 10.0 mi East 3.5 mph - N/A   Overcast
12:55 AM 68.0 °F - 68.0 °F 100% 29.88 in 10.0 mi East 4.6 mph - N/A   Overcast
1:15 AM 68.0 °F - 68.0 °F 100% 29.87 in 10.0 mi East 3.5 mph - N/A   Overcast
1:35 AM 68.0 °F - 68.0 °F 100% 29.86 in 10.0 mi East 4.6 mph - N/A   Overcast
1:55 AM 68.0 °F - 68.0 °F 100% 29.85 in 10.0 mi Calm Calm - N/A   Overcast
2:15 AM 68.0 °F - 68.0 °F 100% 29.84 in 7.0 mi East 4.6 mph - N/A Thunderstorm Thunderstorm
2:35 AM 68.0 °F - 68.0 °F 100% 29.83 in 10.0 mi Calm Calm - N/A   Overcast
2:55 AM 68.0 °F - 68.0 °F 100% 29.83 in 10.0 mi Calm Calm - N/A Thunderstorm Overcast
3:15 AM 69.8 °F - 69.8 °F 100% 29.80 in 7.0 mi East 3.5 mph - N/A Rain , Thunderstorm Light Thunderstorms and Rain
3:35 AM 68.0 °F - 68.0 °F 100% 29.81 in 4.0 mi Calm Calm - 0.01 in Rain Light Rain
3:55 AM 68.0 °F - 68.0 °F 100% 29.80 in 4.0 mi Calm Calm - 0.01 in Rain Light Rain
4:15 AM 68.0 °F - 68.0 °F 100% 29.81 in 7.0 mi Calm Calm - N/A   Overcast
4:35 AM 68.0 °F - 68.0 °F 100% 29.80 in 3.0 mi Calm Calm - N/A   Overcast
4:55 AM 69.8 °F - 69.8 °F 100% 29.76 in 1.5 mi NE 3.5 mph - N/A   Overcast
5:15 AM 68.0 °F - 68.0 °F 100% 29.78 in 0.8 mi ESE 3.5 mph - N/A Rain , Thunderstorm Light Thunderstorms and Rain
5:35 AM 69.8 °F - 69.8 °F 100% 29.75 in 1.0 mi ENE 3.5 mph - N/A   Overcast
5:55 AM 69.8 °F - 69.8 °F 100% 29.77 in 1.0 mi SE 3.5 mph - N/A   Overcast
6:15 AM 71.6 °F - 71.6 °F 100% 29.78 in 0.8 mi ESE 3.5 mph - N/A   Overcast
6:55 AM 71.6 °F - 71.6 °F 100% 29.80 in 4.0 mi West 5.8 mph - 0.10 in Rain , Thunderstorm Light Thunderstorms and Rain
7:35 AM 66.2 °F - 66.2 °F 100% 29.79 in 10.0 mi West 3.5 mph - 0.03 in Rain Light Rain
7:55 AM 64.4 °F - 64.4 °F 100% 29.77 in 10.0 mi Calm Calm - 0.04 in Rain Light Rain
8:15 AM 66.2 °F - 66.2 °F 100% 29.73 in 10.0 mi ESE 4.6 mph - N/A Rain Light Rain
8:35 AM 66.2 °F - 66.2 °F 100% 29.70 in 10.0 mi Calm Calm - N/A   Scattered Clouds
8:55 AM 66.2 °F - 66.2 °F 100% 29.79 in 10.0 mi West 8.1 mph - N/A   Mostly Cloudy
9:15 AM 66.2 °F - 66.2 °F 100% 29.78 in 10.0 mi West 11.5 mph - N/A   Mostly Cloudy
9:35 AM 68.0 °F - 68.0 °F 100% 29.77 in 10.0 mi WNW 6.9 mph - N/A   Clear
9:55 AM 71.6 °F - 68.0 °F 88% 29.77 in 10.0 mi WNW 10.4 mph - N/A   Clear
10:15 AM 71.6 °F - 66.2 °F 83% 29.78 in 10.0 mi NW 8.1 mph - N/A   Clear
10:35 AM 71.6 °F - 66.2 °F 83% 29.77 in 10.0 mi NW 5.8 mph - N/A   Clear
10:55 AM 73.4 °F - 66.2 °F 78% 29.77 in 10.0 mi Calm Calm - N/A   Clear
11:15 AM 73.4 °F - 64.4 °F 73% 29.76 in 10.0 mi WNW 3.5 mph - N/A   Clear
11:35 AM 77.0 °F - 68.0 °F 74% 29.77 in 10.0 mi West 6.9 mph - N/A   Scattered Clouds
11:55 AM 77.0 °F - 66.2 °F 69% 29.77 in 10.0 mi West 8.1 mph - N/A   Mostly Cloudy
12:15 PM 77.0 °F - 66.2 °F 69% 29.77 in 10.0 mi West 8.1 mph - N/A   Mostly Cloudy
12:35 PM 77.0 °F - 66.2 °F 69% 29.76 in 10.0 mi WNW 6.9 mph - N/A   Scattered Clouds
12:55 PM 78.8 °F - 66.2 °F 65% 29.75 in 10.0 mi SW 5.8 mph - N/A   Mostly Cloudy
1:15 PM 78.8 °F - 66.2 °F 65% 29.75 in 10.0 mi West 9.2 mph - N/A   Mostly Cloudy
1:35 PM 77.0 °F - 64.4 °F 65% 29.75 in 10.0 mi WSW 6.9 mph - N/A   Overcast
2:35 PM 78.8 °F - 66.2 °F 65% 29.74 in 10.0 mi WSW 8.1 mph - N/A   Mostly Cloudy
2:55 PM 78.8 °F - 64.4 °F 61% 29.73 in 10.0 mi WSW 10.4 mph - N/A   Mostly Cloudy
3:15 PM 78.8 °F - 64.4 °F 61% 29.73 in 10.0 mi WSW 9.2 mph 16.1 mph N/A   Mostly Cloudy
3:35 PM 78.8 °F - 62.6 °F 57% 29.72 in 10.0 mi WSW 9.2 mph - N/A   Scattered Clouds
3:55 PM 80.6 °F 81.8 °F 62.6 °F 54% 29.71 in 10.0 mi West 10.4 mph - N/A   Scattered Clouds
4:15 PM 80.6 °F 81.8 °F 62.6 °F 54% 29.71 in 10.0 mi WSW 12.7 mph - N/A   Scattered Clouds
4:35 PM 78.8 °F - 60.8 °F 54% 29.70 in 10.0 mi WSW 9.2 mph - N/A   Mostly Cloudy
4:55 PM 80.6 °F 81.5 °F 60.8 °F 51% 29.70 in 10.0 mi WSW 13.8 mph - N/A   Mostly Cloudy
5:15 PM 78.8 °F - 60.8 °F 54% 29.70 in 10.0 mi WSW 12.7 mph - N/A   Scattered Clouds
5:35 PM 78.8 °F - 59.0 °F 51% 29.70 in 10.0 mi WSW 13.8 mph 19.6 mph N/A   Mostly Cloudy
5:55 PM 78.8 °F - 59.0 °F 51% 29.70 in 10.0 mi West 13.8 mph 18.4 mph N/A   Mostly Cloudy
6:15 PM 80.6 °F 81.1 °F 59.0 °F 48% 29.70 in 10.0 mi West 12.7 mph 18.4 mph N/A   Scattered Clouds
6:35 PM 78.8 °F - 59.0 °F 51% 29.70 in 10.0 mi West 9.2 mph - N/A   Scattered Clouds
6:55 PM 78.8 °F - 59.0 °F 51% 29.69 in 10.0 mi WSW 9.2 mph - N/A   Scattered Clouds
7:15 PM 77.0 °F - 59.0 °F 54% 29.70 in 10.0 mi WSW 8.1 mph - N/A   Mostly Cloudy
7:35 PM 77.0 °F - 59.0 °F 54% 29.70 in 10.0 mi West 8.1 mph - N/A   Mostly Cloudy
7:55 PM 77.0 °F - 59.0 °F 54% 29.71 in 10.0 mi WSW 6.9 mph 16.1 mph N/A   Overcast
8:15 PM 73.4 °F - 57.2 °F 57% 29.71 in 10.0 mi WSW 4.6 mph - N/A   Overcast
8:35 PM 73.4 °F - 59.0 °F 61% 29.70 in 10.0 mi SW 4.6 mph - N/A   Overcast
8:55 PM 73.4 °F - 59.0 °F 61% 29.70 in 10.0 mi WSW 6.9 mph - N/A   Overcast
9:15 PM 73.4 °F - 59.0 °F 61% 29.69 in 10.0 mi SW 6.9 mph - N/A   Overcast
9:35 PM 71.6 °F - 57.2 °F 60% 29.70 in 10.0 mi SW 5.8 mph - N/A   Overcast
10:15 PM 68.0 °F - 60.8 °F 78% 29.69 in 10.0 mi West 4.6 mph - N/A   Overcast
10:35 PM 68.0 °F - 60.8 °F 78% 29.69 in 10.0 mi West 4.6 mph - N/A Rain Light Rain
10:55 PM 68.0 °F - 60.8 °F 78% 29.69 in 10.0 mi West 3.5 mph - N/A   Overcast
11:15 PM 68.0 °F - 62.6 °F 83% 29.70 in 10.0 mi West 4.6 mph - N/A   Overcast
11:35 PM 68.0 °F - 62.6 °F 83% 29.70 in 10.0 mi West 9.2 mph - N/A   Mostly Cloudy
11:55 PM 68.0 °F - 62.6 °F 83% 29.70 in 10.0 mi West 6.9 mph - N/A   Mostly Cloudy